Glendale Luke AFB, AZ

4:41 PM MST on November 21, 2019 (GMT -0700)
Luke Air Force Base

Weather History for KLUF - July, 2019

Change the Weather History Date:

Tuesday, July 16, 2019

  Actual Average Record
Temperature  
Mean Temperature 100 °F -  
Max Temperature 113 °F 108 °F 116 °F (1925)
Min Temperature 86 °F 76 °F 66 °F (1962)
Cooling Degree Days 34    
Growing Degree Days 50 (Base 50)    
Moisture  
Dew Point 40 °F    
Average Humidity 14    
Maximum Humidity 29    
Minimum Humidity 6    
Precipitation  
Precipitation 0.00 in - - ()
Sea Level Pressure  
Sea Level Pressure 29.69 in    
Wind  
Wind Speed 7 mph (WSW)    
Max Wind Speed 21 mph    
Max Gust Speed 25 mph    
Visibility 10 miles    
Events      
Averages and records for this station are not official NWS values.
T = Trace of Precipitation, MM = Missing Value Source: NWS Daily Summary

Daily Weather History Graph

Daily Weather History Graph

Search for Another Location

Airport or City:

Astronomy

Jul. 16, 2019 Rise Set
Actual Time 5:31 AM MST 7:39 PM MST
Civil Twilight 5:02 AM MST 8:08 PM MST
Nautical Twilight 4:28 AM MST 8:42 PM MST
Astronomical Twilight 3:51 AM MST 9:19 PM MST
Moon 7:48 PM MST (7/16) 5:13 AM MST (7/16)
Length of Visible Light 15h 05m
Length of Day
14h 08m
Full, 100% of the Moon is Illuminated
Jul 16
Full
Jul 16
Full
Jul 24
Last Quarter
Jul 31
New
Aug 7
First Quarter

Hourly Weather History & Observations

Time (MST) Temp. Heat Index Dew Point Humidity Pressure Visibility Wind Dir Wind Speed Gust Speed Precip Events Conditions
12:58 AM 97.3 °F - 48.2 °F 19% 29.66 in 10.0 mi West 3.5 mph - N/A   Clear
1:58 AM 97.5 °F - 45.3 °F 17% 29.66 in 10.0 mi SSW 5.8 mph - N/A   Clear
2:58 AM 93.4 °F - 48.7 °F 22% 29.66 in 10.0 mi Calm Calm - N/A   Clear
3:58 AM 92.5 °F - 45.5 °F 20% 29.67 in 10.0 mi West 4.6 mph - N/A   Clear
4:58 AM 90.3 °F - 43.7 °F 20% 29.68 in 10.0 mi WSW 4.6 mph - N/A   Clear
5:58 AM 86.2 °F - 50.2 °F 29% 29.69 in 10.0 mi WNW 3.5 mph - N/A   Clear
6:58 AM 89.6 °F - 50.2 °F 26% 29.71 in 10.0 mi Calm Calm - N/A   Clear
7:58 AM 95.2 °F - 38.5 °F 14% 29.73 in 10.0 mi WSW 6.9 mph - N/A   Clear
8:56 AM 99.7 °F - 33.4 °F 10% 29.73 in 9.0 mi SSW 6.9 mph - N/A   Clear
9:56 AM 102.7 °F - 33.1 °F 9% 29.74 in 9.0 mi SSW 5.8 mph - N/A   Clear
10:56 AM 106.0 °F - 29.1 °F 7% 29.74 in 10.0 mi South 8.1 mph - N/A   Clear
11:56 AM 108.9 °F - 27.5 °F 6% 29.73 in 10.0 mi SW 8.1 mph - N/A   Partly Cloudy
12:58 PM 110.5 °F - 28.6 °F 6% 29.71 in 10.0 mi West 9.2 mph 17.3 mph N/A   Partly Cloudy
1:58 PM 111.9 °F - 29.7 °F 6% 29.69 in 10.0 mi WSW 12.7 mph 25.3 mph N/A   Partly Cloudy
2:28 PM 113.0 °F - 30.2 °F 6% 29.68 in 10.0 mi West 15.0 mph - N/A   Clear
2:44 PM 113.0 °F - 33.8 °F 7% 29.67 in 10.0 mi SW 13.8 mph 21.9 mph N/A   Clear
2:58 PM 113.4 °F - 30.7 °F 6% 29.66 in 10.0 mi SW 15.0 mph - N/A   Clear
3:58 PM 112.6 °F - 30.2 °F 6% 29.64 in 10.0 mi SW 20.7 mph 25.3 mph N/A   Clear
4:58 PM 112.3 °F - 33.8 °F 7% 29.63 in 10.0 mi WSW 15.0 mph - N/A   Clear
5:58 PM 111.2 °F - 36.3 °F 8% 29.62 in 10.0 mi WSW 18.4 mph 23.0 mph N/A   Clear
6:58 PM 108.5 °F - 42.4 °F 11% 29.62 in 10.0 mi WSW 16.1 mph - N/A   Clear
7:58 PM 104.2 °F - 47.3 °F 15% 29.64 in 10.0 mi WSW 11.5 mph - N/A   Clear
8:58 PM 101.1 °F - 49.6 °F 18% 29.71 in 10.0 mi SW 9.2 mph - N/A   Clear
9:58 PM 99.1 °F - 50.9 °F 20% 29.73 in 10.0 mi SW 8.1 mph - N/A   Clear
10:58 PM 95.7 °F 94.3 °F 56.3 °F 27% 29.74 in 10.0 mi WSW 11.5 mph - N/A   Clear
11:58 PM 95.4 °F 94.6 °F 57.9 °F 29% 29.74 in 10.0 mi WSW 11.5 mph - N/A   Clear